When you browse on this site, cookies collect data to enhance your experience and personalize the content and advertising you see.
Visit our Privacy Policy to learn more. By continuing to use the site, you agree to this use of cookies and data.

Hourly Weather Kurytyba

Today, 9 July, Thursday

Time Temperature Precipitation Wind Pressure Humidity
00:00 +12°C° 0 mm 2 mps 681 mmHg 89%
01:00 +10°C° 0 mm 2 mps 680 mmHg 89%
02:00 +10°C° 0 mm 2 mps 680 mmHg 89%
03:00 +9°C° 0 mm 2 mps 680 mmHg 89%
04:00 +8°C° 0 mm 2 mps 680 mmHg 90%
05:00 +8°C° 0 mm 2 mps 681 mmHg 90%
06:00 +7°C° 0 mm 2 mps 681 mmHg 90%
07:00 +8°C° 0 mm 2 mps 682 mmHg 85%
08:00 +9°C° 0 mm 2 mps 682 mmHg 79%
09:00 +9°C° 0 mm 2 mps 683 mmHg 73%
10:00 +12°C° 0 mm 2 mps 684 mmHg 64%
11:00 +13°C° 0 mm 2 mps 684 mmHg 55%
12:00 +15°C° 0 mm 2 mps 684 mmHg 46%
13:00 +16°C° 0 mm 2 mps 684 mmHg 43%
14:00 +16°C° 0 mm 1 mps 684 mmHg 40%
15:00 +18°C° 0 mm 1 mps 684 mmHg 37%
16:00 +15°C° 0 mm 1 mps 683 mmHg 45%
17:00 +13°C° 0 mm 1 mps 683 mmHg 53%
18:00 +11°C° 0 mm 0 mps 683 mmHg 60%
19:00 +10°C° 0 mm 0 mps 683 mmHg 62%
20:00 +10°C° 0 mm 0 mps 684 mmHg 63%
21:00 +9°C° 0 mm 0 mps 684 mmHg 65%
22:00 +9°C° 0 mm 0 mps 684 mmHg 64%
23:00 +8°C° 0 mm 0 mps 684 mmHg 64%

Tomorrow, 10 July, Friday

Time Temperature Precipitation Wind Pressure Humidity
00:00 +8°C° 0 mm 0 mps 684 mmHg 63%
01:00 +8°C° 0 mm 0 mps 684 mmHg 63%
02:00 +8°C° 0 mm 0 mps 684 mmHg 62%
03:00 +7°C° 0 mm 0 mps 683 mmHg 62%
04:00 +7°C° 0 mm 0 mps 683 mmHg 64%
05:00 +6°C° 0 mm 0 mps 683 mmHg 66%
06:00 +6°C° 0 mm 0 mps 683 mmHg 68%
07:00 +8°C° 0 mm 0 mps 684 mmHg 66%
08:00 +10°C° 0 mm 1 mps 684 mmHg 64%
09:00 +12°C° 0 mm 1 mps 685 mmHg 61%
10:00 +14°C° 0 mm 1 mps 685 mmHg 55%
11:00 +16°C° 0 mm 1 mps 685 mmHg 49%
12:00 +18°C° 0 mm 2 mps 685 mmHg 42%
13:00 +18°C° 0 mm 2 mps 685 mmHg 43%
14:00 +19°C° 0 mm 2 mps 684 mmHg 43%
15:00 +19°C° 0 mm 2 mps 684 mmHg 44%
16:00 +18°C° 0 mm 1 mps 683 mmHg 54%
17:00 +15°C° 0 mm 1 mps 683 mmHg 64%
18:00 +13°C° 0 mm 1 mps 683 mmHg 75%
19:00 +12°C° 0 mm 1 mps 683 mmHg 77%
20:00 +12°C° 0 mm 1 mps 683 mmHg 79%
21:00 +11°C° 0 mm 1 mps 683 mmHg 82%
22:00 +11°C° 0 mm 1 mps 683 mmHg 82%
23:00 +11°C° 0 mm 1 mps 683 mmHg 82%

Day after tomorrow, 11 July, Saturday

Time Temperature Precipitation Wind Pressure Humidity
00:00 +11°C° 0 mm 1 mps 683 mmHg 83%
01:00 +11°C° 0 mm 1 mps 683 mmHg 84%
02:00 +11°C° 0 mm 1 mps 683 mmHg 85%
03:00 +11°C° 0 mm 1 mps 683 mmHg 86%
04:00 +11°C° 0 mm 1 mps 682 mmHg 86%
05:00 +12°C° 0 mm 1 mps 682 mmHg 86%
06:00 +12°C° 0 mm 1 mps 682 mmHg 86%
07:00 +13°C° 0 mm 1 mps 682 mmHg 80%
08:00 +15°C° 0 mm 1 mps 683 mmHg 75%
09:00 +16°C° 0 mm 2 mps 683 mmHg 69%
10:00 +19°C° 0 mm 2 mps 683 mmHg 62%
11:00 +21°C° 0 mm 2 mps 683 mmHg 55%
12:00 +24°C° 0 mm 2 mps 683 mmHg 47%
13:00 +25°C° 0.1 mm 2 mps 683 mmHg 48%
14:00 +25°C° 0.1 mm 2 mps 683 mmHg 49%
15:00 +25°C° 0.1 mm 2 mps 683 mmHg 50%
16:00 +23°C° 0.7 mm 2 mps 682 mmHg 61%
17:00 +21°C° 0.7 mm 1 mps 682 mmHg 72%
18:00 +19°C° 0.7 mm 1 mps 681 mmHg 84%
19:00 +18°C° 0.2 mm 1 mps 682 mmHg 85%
20:00 +18°C° 0.2 mm 1 mps 682 mmHg 87%
21:00 +16°C° 0.2 mm 1 mps 682 mmHg 88%
22:00 +16°C° 0 mm 1 mps 682 mmHg 89%
23:00 +16°C° 0 mm 1 mps 682 mmHg 90%

12 July, Sunday

Time Temperature Precipitation Wind Pressure Humidity
00:00 +15°C° 0 mm 1 mps 682 mmHg 91%
01:00 +15°C° 0 mm 1 mps 681 mmHg 91%
02:00 +15°C° 0 mm 1 mps 681 mmHg 92%
03:00 +15°C° 0 mm 1 mps 681 mmHg 92%
04:00 +14°C° 0 mm 1 mps 680 mmHg 91%
05:00 +14°C° 0 mm 1 mps 680 mmHg 91%
06:00 +14°C° 0 mm 1 mps 680 mmHg 90%
07:00 +15°C° 0 mm 2 mps 680 mmHg 86%
08:00 +16°C° 0 mm 2 mps 681 mmHg 82%
09:00 +18°C° 0 mm 2 mps 681 mmHg 78%
10:00 +20°C° 0 mm 3 mps 681 mmHg 69%
11:00 +22°C° 0 mm 3 mps 681 mmHg 60%
12:00 +25°C° 0 mm 4 mps 681 mmHg 50%
13:00 +25°C° 0 mm 4 mps 681 mmHg 49%
14:00 +26°C° 0 mm 4 mps 680 mmHg 47%
15:00 +26°C° 0 mm 4 mps 680 mmHg 45%
16:00 +23°C° 0 mm 4 mps 680 mmHg 53%
17:00 +22°C° 0 mm 3 mps 679 mmHg 60%
18:00 +20°C° 0 mm 2 mps 679 mmHg 67%
19:00 +19°C° 0 mm 2 mps 679 mmHg 71%
20:00 +19°C° 0 mm 2 mps 679 mmHg 75%
21:00 +18°C° 0 mm 2 mps 680 mmHg 79%
22:00 +18°C° 0 mm 2 mps 680 mmHg 79%
23:00 +17°C° 0 mm 2 mps 679 mmHg 80%

13 July, Monday

Time Temperature Precipitation Wind Pressure Humidity
00:00 +17°C° 0 mm 2 mps 679 mmHg 80%
01:00 +17°C° 0 mm 2 mps 679 mmHg 79%
02:00 +17°C° 0 mm 2 mps 679 mmHg 78%
03:00 +18°C° 0 mm 2 mps 679 mmHg 78%
04:00 +17°C° 0 mm 2 mps 679 mmHg 79%
05:00 +17°C° 0 mm 2 mps 679 mmHg 81%
06:00 +16°C° 0 mm 2 mps 679 mmHg 83%
07:00 +17°C° 0 mm 2 mps 680 mmHg 79%
08:00 +18°C° 0 mm 2 mps 680 mmHg 76%
09:00 +20°C° 0 mm 1 mps 681 mmHg 72%
10:00 +20°C° 0 mm 2 mps 681 mmHg 68%
11:00 +21°C° 0 mm 2 mps 682 mmHg 63%
12:00 +23°C° 0 mm 2 mps 682 mmHg 58%
13:00 +24°C° 0 mm 2 mps 682 mmHg 58%
14:00 +24°C° 0 mm 2 mps 681 mmHg 57%
15:00 +25°C° 0 mm 2 mps 681 mmHg 56%
16:00 +23°C° 0 mm 2 mps 681 mmHg 63%
17:00 +22°C° 0 mm 1 mps 681 mmHg 69%
18:00 +20°C° 0 mm 1 mps 681 mmHg 76%
19:00 +20°C° 0 mm 1 mps 681 mmHg 78%
20:00 +19°C° 0 mm 1 mps 682 mmHg 80%
21:00 +18°C° 0 mm 1 mps 682 mmHg 83%
22:00 +18°C° 0.3 mm 1 mps 682 mmHg 86%
23:00 +18°C° 0.3 mm 1 mps 682 mmHg 89%

14 July, Tuesday

Time Temperature Precipitation Wind Pressure Humidity
00:00 +16°C° 0.3 mm 0 mps 682 mmHg 93%
01:00 +16°C° 0.3 mm 1 mps 682 mmHg 94%
02:00 +16°C° 0.3 mm 1 mps 682 mmHg 95%
03:00 +16°C° 0.3 mm 1 mps 682 mmHg 96%
04:00 +16°C° 0.2 mm 1 mps 682 mmHg 96%
05:00 +16°C° 0.2 mm 1 mps 682 mmHg 96%
06:00 +16°C° 0.2 mm 1 mps 682 mmHg 96%
07:00 +16°C° 0.2 mm 1 mps 682 mmHg 95%
08:00 +16°C° 0.2 mm 1 mps 683 mmHg 94%
09:00 +16°C° 0.2 mm 1 mps 683 mmHg 93%
10:00 +16°C° 0.2 mm 1 mps 683 mmHg 93%
11:00 +16°C° 0.2 mm 1 mps 683 mmHg 93%
12:00 +16°C° 0.2 mm 1 mps 683 mmHg 93%
13:00 +18°C° 0.1 mm 1 mps 683 mmHg 92%
14:00 +18°C° 0.1 mm 1 mps 683 mmHg 91%
15:00 +18°C° 0.1 mm 1 mps 682 mmHg 91%
16:00 +16°C° 0.3 mm 1 mps 682 mmHg 92%
17:00 +16°C° 0.3 mm 1 mps 683 mmHg 93%
18:00 +15°C° 0.3 mm 2 mps 683 mmHg 95%
19:00 +15°C° 0.1 mm 2 mps 683 mmHg 95%
20:00 +14°C° 0.1 mm 2 mps 683 mmHg 95%
21:00 +14°C° 0.1 mm 2 mps 684 mmHg 96%
22:00 +13°C° 0 mm 2 mps 684 mmHg 96%
23:00 +13°C° 0 mm 2 mps 684 mmHg 96%
Show more